Location: Antioch Baptist Church
(32.6696°N, 85.7327°W)
Time: 21:06:32
(UTC+00:00)

SEDSat Delta rocket - Pass Details

Date: 14 July 2020
Orbit: 533 x 1001 km, 31.4° (Epoch: 13 August)

Event Time Altitude Azimuth Distance (km) Brightness Sun altitude
Rises 01:42:09 0° 239° (WSW) 3,050 7.0 -9.9°
Reaches altitude 10° 01:44:28 10° 234° (SW) 2,206 6.1 -10.3°
Maximum altitude 01:49:30 48° 160° (SSE) 1,028 3.8 -11.2°
Drops below altitude 10° 01:55:17 10° 88° (E) 2,526 5.7 -12.2°
Enters shadow 01:55:47 - 87° (E) 2,702 5.9 -12.3°
